2019-036S (44355 NORAD) Tracking and Keplerian Element Data

This shows tracking and keplerian element data for the satellite.

Feedback or suggestion? Click here.




ElementValue
Catalog44355
Name2019-036S
Epoch Orbit383
Epoch Day201.92251314
Epoch Year2019
RAAN34.2102
Inclination28.5353
Eccentricity0.0387468
Argument of Perigee16.3661
Mean Anonmoly344.9063
Mean Motion14.97380232
Decay Rate8.726E-05
L11 44355U 19036S 19201.92251314 .00008726 00000-0 13494-3 0 9997
L22 44355 28.5353 34.2102 0387468 16.3661 344.9063 14.97380232 3832

Live tracking and technical data element details for 2019-036S (NORAD 44355). 2019-036S can be tracked NOW for your location showing map with azimuth and elevation plus other details from your city location.

Track the satellite on the map from your city or location and see movement details for azimuth, elevation, latitude, longitude, range, height, and movement on the map or in text.







IsCatalogInMostPopularTable: catalog: 44355, numindb: 7
Update: records affected: 1



GetName: 44355 2019-036S

Hit Count: updated at: Sun, 21 Jul 2019 21:42:43 GMT